Terminal Aerodrome Forecast
Issued by NWS Jackson, MS

Home | Current Version | Previous Version | Text Only | Print | Product List | Glossary On
Versions: 1 2 3 4 5 6 7 8 9 10 11 12 13 14 15 16 17 18
000
FTUS44 KJAN 291122
TAFGLH
TAF
KGLH 291122Z 2912/3012 21006KT P6SM OVC080
     FM291600 26008KT P6SM VCTS BKN035CB
     FM300000 19005KT P6SM SCT040=

USA.gov is the U.S. government's official web portal to all federal, state and local government web resources and services.